Powrót do katalogu

STARLINK-11697

AktywnyŁącznośćVLEO
NORAD 63553·PAYLOAD·🇺🇸 United States

Wystrzelony Apr 13, 2025 z Cape Canaveral Space Force Station

Loading…

Następne Przeloty (najbliższe 24 godziny)

TLE

ŚwieżeSource: CelesTrak SupGP

Epoka: Sep 15, 2026, 03:53 UTC

1 63553C 25075F   26258.16229167 -.00004163  00000+0 -32308-4 0  2581
2 63553  43.0005  91.5099 0001748 273.7829 319.6623 15.70859403    10

Śledź STARLINK-11697 w czasie rzeczywistym z AllMySat

Download on the App Store